This is the latest recevied weather packets stored in our database for station/object N5CNB. If no packets are shown the sender has not sent any weather packets the latest 10 day(s).
| Time | Temp. | Humidity | Pressure | Rain* | Wind** | Luminosity | Snow |
|---|---|---|---|---|---|---|---|
| 1777852818 | 23.89° C | 44% | 1018.2 hPa | 0 mm | - | - | - |
| 1777851935 | 24.44° C | 44% | 1018.1 hPa | 0 mm | - | - | - |
| 1777851005 | 24.44° C | 41% | 1018 hPa | 0 mm | - | - | - |
| 1777850113 | 25° C | 42% | 1018.2 hPa | 0 mm | - | - | - |
| 1777849216 | 25° C | 39% | 1018.3 hPa | 0 mm | - | - | - |
| 1777848321 | 25.56° C | 39% | 1018.5 hPa | 0 mm | - | - | - |
| 1777847425 | 25.56° C | 39% | 1018.6 hPa | 0 mm | - | - | - |
| 1777846508 | 25.56° C | 39% | 1018.9 hPa | 0 mm | - | - | - |
| 1777845612 | 25.56° C | 38% | 1019 hPa | 0 mm | - | - | - |
| 1777844716 | 25° C | 39% | 1019.3 hPa | 0 mm | - | - | - |
| 1777843822 | 25.56° C | 38% | 1019.4 hPa | 0 mm | - | - | - |
| 1777842923 | 25° C | 42% | 1019.6 hPa | 0 mm | - | - | - |
| 1777842007 | 25° C | 37% | 1020 hPa | 0 mm | - | - | - |
| 1777841111 | 25.56° C | 39% | 1020.1 hPa | 0 mm | - | - | - |
| 1777840221 | 25° C | 42% | 1020.5 hPa | 0 mm | - | - | - |
| 1777839322 | 25° C | 44% | 1020.6 hPa | 0 mm | - | - | - |
| 1777838424 | 25° C | 44% | 1020.7 hPa | 0 mm | - | - | - |
| 1777837514 | 25.56° C | 44% | 1021 hPa | 0 mm | - | - | - |
| 1777836622 | 25.56° C | 43% | 1021.2 hPa | 0 mm | - | - | - |
| 1777835720 | 25.56° C | 41% | 1021.5 hPa | 0 mm | - | - | - |
| 1777834827 | 25° C | 40% | 1021.6 hPa | 0 mm | - | - | - |
| 1777833937 | 25.56° C | 43% | 1021.7 hPa | 0 mm | - | - | - |
| 1777833012 | 25° C | 42% | 1021.8 hPa | 0 mm | - | - | - |
| 1777832116 | 25° C | 40% | 1022.1 hPa | 0 mm | - | - | - |
| 1777831224 | 25° C | 42% | 1022.3 hPa | 0 mm | - | - | - |
* Rain latest hour (hover to see other rain measurements)
** Current wind speed in m/s (hover to see current wind gust speed)